Location: Unspecified
(44.4377°N, 88.0525°W)
Time: 20:02:07
(UTC-06:00)

Okean 3 - Visible Passes

Search period start: 18 December 2018 00:00
Search period end: 28 December 2018 00:00
Orbit: 577 x 601 km, 82.5° (Epoch: 18 December)

Date Brightness Start Highest point End Pass type
(mag) Time Alt. Az. Time Alt. Az. Time Alt. Az.
18 Dec 4.7 17:20:01 10° SSW 17:24:07 44° WNW 17:28:15 10° N visible
19 Dec 5.4 17:28:24 10° SW 17:32:13 30° WNW 17:36:03 10° NNW visible
20 Dec 6.0 17:37:01 10° WSW 17:40:21 21° WNW 17:43:40 10° NNW visible
21 Dec 6.3 17:45:58 10° WSW 17:48:31 15° WNW 17:51:04 10° NNW visible
22 Dec 6.6 17:55:47 10° WNW 17:56:44 11° WNW 17:57:40 10° NW visible
26 Dec 5.8 16:47:45 10° SW 16:51:10 23° WNW 16:54:35 10° NNW visible
27 Dec 6.2 16:56:38 10° WSW 16:59:20 16° WNW 17:02:01 10° NNW visible
